SCOUT X-4 R/B, 1358

Orbit data source: Space-Track

SCOUT X-4 R/B, 1358 is space debris in LEO originally from a launch on Thu, 29 Apr 1965 UTC launched from the Wallops Island (WLPIS). Debris objects in space refer to the collection of defunct objects orbiting the Earth. Examples of debris include non-operational satellites, rocket bodies, and fragments generated from explosions, collisions, or faulty payload assembly.

Loading next visibility...
Identifier
1358, 1965-032B
Orbit
LEO
Country
Flag of USUS
Related business
Manufacturer
ABL
Mission
Spacecraft
Bus & Motor
ALTAIR, Unknown motor
Mass
33 kg wet, 33 kg dry
Launch date (UTC)
1965-04-29 (61 years ago)
Launch vehicle
Unknown
Launch site
Wallops Island (WLPIS)
Object type
Payload
Rocket body
Debris
Shape & HBR
Unknown
Radar Cross Section
Medium (>0.1 m² and <1 m²)

Expand to show TLE details & history
Last TLE update: 11 hours ago

TLE from 11 hours ago
0 SCOUT X-4 R/B
1  1358U 65032B   25312.63429205 -.00000024  00000-0  91172-4 0  9998
2  1358  41.1908 290.4350 0243935 158.3958 202.7295 13.38229639958128
Epoch: 2025-11-08T15:13Z
TLE epoch observation values (Epoch: 2025-11-08T15:13:22.833Z)
Latitude
0.00003°
Longitude
14.02881°
Altitude
1,284.722 km
Speed
7.133 km/s
True Right ascension
19h 21m 44s
True Declination
0° 00' 00"
Sunlit
Object was in daylight at epoch
Visualization orbit readout
Latitude
Unknown
Longitude
Unknown
Altitude
Unknown
Speed
Unknown
Apparent Right ascension
Unknown
Apparent Declination
Unknown
Sunlit
N/A
Visualization observer readout
Local Sidereal Time
22:40:27
Azimuth
Unknown
Elevation
Unknown
Doppler factor
Unknown
Orbital elements
Apogee altitude
1,300.797 km
Perigee altitude
935.086 km
Semi-major axis
7,496.079 km
Eccentricity
0.02439
Inclination
41.1908°
RAAN
290.435°
Arg. of periapsis
158.3958°
True anomaly
201.67909°
Mean anomaly
202.7295°
Eccentric anomaly
202.20138°
Mean motion
3.3442 °/min
Orbital period
107.65 mins
BSTAR
0.000091172
Loading maneuver chart data...
Computing Atmospheric mass density...
Loading historical data...
Loading historical data...
Loading historical data...
Loading historical data...
Loading historical data...
Loading historical data...
Loading historical data...
Other satellites on launch #32 in the year 1965 (1965-04-29 UTC)

Documentation

Showing up to 5 results
|